Regional Weather Roundup
Issued by NWS Charleston, SC

Current Version | Previous Version | Text Only | Print | Product List | Glossary On
Versions: 1 2 3 4 5 6 7 8 9 10 11 12 13 14 15 16 17 18 19 20 21 22 23 24 25 26 27 28 29 30 31 32 33 34 35 36 37 38 39 40 41 42 43 44 45 46 47 48 49 50
000 ASUS42 KCHS 282325 RWRCHS REGIONAL WEATHER ROUNDUP NATIONAL WEATHER SERVICE CHARLESTON SC 600 PM EST SUN DEC 28 2014 NOTE: "FAIR" INDICATES FEW OR NO CLOUDS BELOW 12,000 FEET WITH NO SIGNIFICANT WEATHER AND/OR OBSTRUCTIONS TO VISIBILITY. NOT ALL STATIONS ARE QUALITY CONTROLLED BY THE NATIONAL WEATHER SERVICE. USE DATA WITH CAUTION...ESPECIALLY DEWPOINT OBSERVATIONS. SCZ027-030-031-034>040-042>050-290000- ...SOUTHEAST SOUTH CAROLINA... CITY SKY/WX TMP DP RH WIND PRES REMARKS N CHARLESTON MOCLDY 65 62 90 S6 30.06R WATERFRONT PRK N/A 63 N/A N/A S5 N/A MOUNT PLEASANT FAIR 64 64 100 S3 30.06R PINOPOLIS NOT AVBL MONCKS CORNER FAIR 68 64 88 CALM 30.05R SUMMERVILLE FAIR 68 64 88 CALM 30.06R BEAUFORT MCAS MOCLDY 65 62 90 SE3 30.06R BEAUFORT ARPT FAIR 63 63 100 CALM 30.06R HILTON HEAD IS MOCLDY 66 63 88 S5 30.08R WALTERBORO MOCLDY 68 N/A N/A CALM 30.06R ALLENDALE CLOUDY 72 64 78 CALM 30.05R ...SOUTHERN MIDLANDS AND PEE DEE... CITY SKY/WX TMP DP RH WIND PRES REMARKS GEORGETOWN NOT AVBL KINGSTREE NOT AVBL ORANGEBURG CLOUDY 68 61 78 NW5 30.05R BARNWELL N/A 66 63 88 CALM 30.06S AIKEN CLOUDY 61 61 100 SW5 30.09S MANNING CLOUDY 68 63 83 CALM 30.06R COLUMBIA CLOUDY 64 62 93 CALM 30.05R SUMTER CLOUDY 65 61 86 W10 30.04R FLORENCE CLOUDY 68 61 78 W13G20 30.04R MYRTLE BEACH MOCLDY 70 61 73 SW7 30.06R N MYRTLE BEACH CLOUDY 65 61 87 SW10 30.04R $$ GAZ063-065-086>088-099>101-113>116-118-119-134>141-150-290000- ...SOUTHEAST GEORGIA... CITY SKY/WX TMP DP RH WIND PRES REMARKS SAVANNAH ARPT MOCLDY 72 62 71 S5 30.06R HUNTER AAF CLOUDY 72 66 80 CALM 30.04R FORT STEWART CLOUDY 71 66 84 CALM 30.04S STATESBORO PTCLDY 63 63 100 CALM 30.05S SYLVANIA PTCLDY 66 64 94 CALM 30.06R CLAXTON FAIR 64 64 100 CALM 30.05S ...CSRA...CENTRAL AND FAR SOUTHEAST GEORGIA... CITY SKY/WX TMP DP RH WIND PRES REMARKS THOMSON CLOUDY 63 63 99 CALM 30.11R AUGUSTA-BUSH CLOUDY 66 60 81 NW8 30.06R AUGUSTA-DANIEL CLOUDY 65 60 84 CALM 30.07R SWAINSBORO FAIR 70 68 94 CALM 30.06S VIDALIA PTCLDY 70 64 83 SW3 30.05S EASTMAN FAIR 67 67 100 CALM 30.07S HAZLEHURST FAIR 69 67 94 CALM 30.05S ALMA PTCLDY 71 62 73 S3 30.05S WAYCROSS MOCLDY 71 68 91 CALM 30.07R JESUP CLOUDY 75 68 78 CALM 30.06S BAXLEY CLOUDY 72 68 88 CALM 30.05S BRUNSWICK MOCLDY 73 63 68 SW3 30.08S SAINT SIMONS MOCLDY 69 62 78 CALM 30.07R $$ SCZ027-028-034-036>038-045-046-048>050-GAZ119-141-290000- ...LAKE AND SUPPLEMENTAL COASTAL OBSERVATIONS... STATION/POSITION TIME TEMP WIND PRES WAVE SWELL AIR SEA DIR/SP/G HT/PER HT/PER/DIR (UTC) (F) (DEG/KT/KT) (MB) (FT/S) (FT/S/D) UPR LAKE MARION NOT AVBL WINYAH BAY 2300 67 190/ 3 1017.0S LAKE MURRAY 2200 60 240/ 6/ 8 1016.6S ACE BASIN NERRS 2300 62 CALM 1018.0S FORT PULASKI 2300 64 57 170/ 5/ 8 1018.4R SAPELO ISLAND 2300 69 160/ 6 1018.0S $$ ANZ835-935-AMZ111-154-330-350-352-354-370-450-454-472-290000- ...C-MAN AND BUOY OBSERVATIONS... STATION/POSITION TIME TEMP WIND PRES WAVE SWELL AIR SEA DIR/SP/G HT/PER HT/PER/DIR (UTC) (F) (DEG/KT/KT) (MB) (FT/S) (FT/S/D) BUOY 41004 2300 72 73 220/ 12/ 14 1017.9R 3/14 2/14 BUOY 41008 2300 62 59 180/ 8/ 10 1018.2R 3/15 3/ 70/15 FOLLY BEACH CMAN 2300 58 200/ 5/ 7 1018.6R CAPERS NEARSHORE 2200 60 210/ 6/ 8 N/A FRIPP NEARSHORE NOT AVBL STATION/POSITION TIME TEMP WIND PRES WAVE SWELL AIR SEA DIR/SP/G HT/PER HT/PER/DIR (UTC) (F) (DEG/KT/KT) (MB) (FT/S) (FT/S/D) 5E ST. MARYS GA 2300 62 N/A 2/14 2/100/14 FRYING PAN BUOY 2300 70 67 230/ 10/ 12 1018.5R 3/14 3/120/14 BUOY 41025 2300 70 1017.3R 4/12 CAPE LOOKOUT NC 2300 64 220/ 10/ 13 1017.1R BUOY 41002 2154 74 74 220/ 16/ 19 1020.5R 5/14 3/ 90/14 BUOY 41010 2300 76 77 260/ 6/ 8 1020.5R 5/14 5/ 70/14 ST AUGUSTINE FL 2300 67 180/ 6/ 6 1019.4R $$

USA.gov is the U.S. government's official web portal to all federal, state and local government web resources and services.